BEIDOU-3 M3 (C21)

Last updated on Mon Jun 22 2026 00:03:30 GMT+0000 (Coordinated Universal Time)

1 43208U 18018B 26172.02651015 -.00000078 00000+0 00000+0 0 9997 2 43208 56.6539 63.0252 0008507 342.4990 17.5099 1.86231037 56814
UTC large
Height (km)
Speed (km/s)
/
Latitude / Longitude
Inclination (degrees)
Orbital Period (minutes)
Azimuth
Elevation
Range (km)
Doppler Factor

Next 0 passes for location: London (51.5072 / 0.1276)

No passes found over London.
BEIDOU-3 M3 (C21)